Weather History for Faith, SD

Change the Weather History Date:

Tuesday, July 2, 2013

  Actual Average Record
Temperature  
Mean Temperature 72 °F 70 °F  
Max Temperature 87 °F 84 °F 96 °F (2010)
Min Temperature 56 °F 57 °F 50 °F (2014)
Degree Days  
Heating Degree Days 0 1  
Month to date heating degree days 0 2  
Since 1 June heating degree days 73 92  
Since 1 July heating degree days 0 2  
Cooling Degree Days 7 6  
Month to date cooling degree days 13 12  
Year to date cooling degree days 108 112  
Since 1 June cooling degree days 95 100  
Growing Degree Days 20 (Base 50)    
Moisture  
Dew Point 46 °F    
Average Humidity 47    
Maximum Humidity 72    
Minimum Humidity 21    
Precipitation  
Precipitation 0.00 in 0.10 in 0.48 in (2005)
Month to date precipitation 0.00 0.21  
Year to date precipitation 8.90 9.60  
Sea Level Pressure  
Sea Level Pressure 30.11 in    
Wind  
Wind Speed 9 mph (SE)    
Max Wind Speed 17 mph    
Max Gust Speed 23 mph    
T = Trace of Precipitation, MM = Missing Value Source: NWS Daily Summary

Daily Weather History Graph

Daily Weather History Graph

Search for Another Location

Airport:

Trip Planner

Search our weather history database for the weather conditions in past years. The results will help you decide how hot, cold, wet, or windy it might be!

Date:

Astronomy

Jul. 02, 2013 Rise Set
Actual Time 5:05 AM MDT 8:38 PM MDT
Civil Twilight 4:28 AM MDT 9:15 PM MDT
Nautical Twilight 3:39 AM MDT 10:04 PM MDT
Astronomical Twilight 2:35 AM MDT 11:08 PM MDT
Moon 1:17 AM MDT (7/2) 3:47 PM MDT (7/2)
Length of Visible Light 16h 46m
Length of Day
15h 32m
Waning Crescent, 26% of the Moon is Illuminated
Jul 2
Waning Crescent
Jul 8
New
Jul 15
First Quarter
Jul 22
Full
Jul 29
Last Quarter

Hourly Weather History & Observations

Time (MDT) Temp. Dew Point Humidity Pressure Visibility Wind Dir Wind Speed Gust Speed Precip Events Conditions
12:56 AM 60.1 °F 46.9 °F 62% 30.19 in - SSE 10.4 mph - N/A   Unknown
1:56 AM 55.9 °F 46.9 °F 72% 30.18 in - SSE 11.5 mph - N/A   Unknown
2:56 AM 59.0 °F 46.9 °F 64% 30.17 in - SSE 11.5 mph - N/A   Unknown
3:56 AM 57.9 °F 46.9 °F 67% 30.17 in - SSE 10.4 mph - N/A   Unknown
4:56 AM 61.0 °F 46.9 °F 60% 30.16 in - SE 11.5 mph - N/A   Unknown
5:56 AM 60.1 °F 46.9 °F 62% 30.16 in - SE 11.5 mph - N/A   Unknown
6:56 AM 63.0 °F 48.9 °F 60% 30.16 in - SE 12.7 mph - N/A   Unknown
7:56 AM 68.0 °F 48.9 °F 50% 30.17 in - SSE 12.7 mph - N/A   Unknown
8:56 AM 73.0 °F 48.9 °F 42% 30.16 in - SSE 9.2 mph - N/A   Unknown
9:56 AM 77.0 °F 48.9 °F 37% 30.15 in - SE 8.1 mph - N/A   Unknown
10:56 AM 79.0 °F 46.9 °F 32% 30.15 in - ESE 9.2 mph - N/A   Unknown
11:56 AM 81.0 °F 46.9 °F 30% 30.14 in - NE 6.9 mph - N/A   Unknown
12:56 PM 82.0 °F 45.0 °F 27% 30.13 in - Variable 5.8 mph - N/A   Unknown
1:56 PM 84.0 °F 45.0 °F 25% 30.11 in - NE 9.2 mph - N/A   Unknown
2:56 PM 84.9 °F 42.1 °F 22% 30.09 in - WSW 6.9 mph - N/A   Unknown
3:56 PM 86.0 °F 42.1 °F 21% 30.07 in - Calm Calm - N/A   Unknown
4:56 PM 84.9 °F 43.0 °F 23% 30.06 in - North 4.6 mph - N/A   Unknown
5:56 PM 84.0 °F 42.1 °F 23% 30.05 in - Calm Calm - N/A   Unknown
6:56 PM 82.9 °F 44.1 °F 25% 30.04 in - NNE 5.8 mph - N/A   Unknown
7:56 PM 75.9 °F 48.9 °F 38% 30.04 in - East 11.5 mph - N/A   Unknown
8:56 PM 73.0 °F 46.9 °F 39% 30.04 in - ESE 12.7 mph - N/A   Unknown
9:56 PM 70.0 °F 46.9 °F 44% 30.05 in - SE 12.7 mph - N/A   Unknown
10:56 PM 69.1 °F 46.9 °F 45% 30.04 in - SE 15.0 mph - N/A   Unknown
11:56 PM 66.0 °F 46.9 °F 50% 30.03 in - SE 11.5 mph - N/A   Unknown